Location: Lawrence Hall of Science
(37.8785°N, 122.2415°W)
Time: 22:21:39
(UTC-07:00)

Cosmos 2151 - Visible Passes

Search period start: 30 July 2014 00:00
Search period end: 09 August 2014 00:00
Orbit: 587 x 607 km, 82.5° (Epoch: 30 July)

Date Brightness Start Highest point End Pass type
(mag) Time Alt. Az. Time Alt. Az. Time Alt. Az.
30 Jul 4.2 02:54:31 10° N 02:57:53 40° NE 02:57:53 40° NE visible
30 Jul 5.2 04:33:45 10° WNW 04:34:33 12° WNW 04:34:33 12° WNW visible
31 Jul 3.9 03:04:51 10° N 03:07:54 45° N 03:07:54 45° N visible
01 Aug 4.2 03:15:22 10° NNW 03:17:56 35° NNW 03:17:56 35° NNW visible
02 Aug 5.7 01:49:59 10° NE 01:51:20 14° NE 01:51:20 14° NE visible
02 Aug 4.7 03:26:04 10° NNW 03:28:00 24° NW 03:28:00 24° NW visible
03 Aug 5.5 01:59:39 10° NNE 02:01:25 19° NE 02:01:25 19° NE visible
03 Aug 5.2 03:36:59 10° NW 03:38:06 16° NW 03:38:06 16° NW visible
04 Aug 5.3 02:09:42 10° N 02:11:32 22° NNE 02:11:32 22° NNE visible
05 Aug 5.2 02:19:59 10° N 02:21:40 23° N 02:21:40 23° N visible
06 Aug 5.3 02:30:26 10° N 02:31:49 20° NNW 02:31:49 20° NNW visible
07 Aug 5.5 02:41:03 10° NNW 02:41:59 16° NNW 02:41:59 16° NNW visible
08 Aug 5.9 01:14:57 10° NNE 01:15:30 12° NNE 01:15:30 12° NNE visible
08 Aug 5.7 02:51:52 10° NNW 02:52:11 12° NNW 02:52:11 12° NNW visible
